Location: Unspecified
(0.0000°N, 0.0000°E)
Time: 04:54:40
(UTC+00:00)

Shinsei - Visible Passes

Search period start: 07 December 2023 00:00
Search period end: 17 December 2023 00:00
Orbit: 869 x 1860 km, 32.1° (Epoch: 06 December)

Date Brightness Start Highest point End Pass type
(mag) Time Alt. Az. Time Alt. Az. Time Alt. Az.
07 Dec 11.8 02:08:59 21° ESE 02:08:59 21° ESE 02:12:10 10° E visible
07 Dec 9.6 04:02:07 23° WSW 04:07:10 88° NW 04:13:30 10° NE visible
07 Dec 12.7 18:12:09 10° W 18:20:35 28° SSW 18:29:46 10° SSE visible
07 Dec 13.0 20:22:02 10° SSW 20:24:41 11° SSW 20:27:19 10° S visible
08 Dec 11.1 02:39:32 34° ESE 02:39:32 34° ESE 02:43:41 10° E visible
08 Dec 9.9 04:32:38 20° W 04:37:27 46° NW 04:43:26 10° NE visible
08 Dec 12.9 18:45:13 10° WSW 18:51:59 18° SSW 18:59:06 10° SSE visible
09 Dec 10.4 03:09:45 49° ENE 03:09:45 49° ENE 03:14:26 10° ENE visible
09 Dec 10.6 05:02:50 12° W 05:07:44 24° NW 05:12:43 10° NNE visible
09 Dec 13.0 19:19:45 10° SW 19:23:47 12° SSW 19:27:54 10° S visible
09 Dec 12.8 23:29:13 10° SSW 23:29:45 11° S 23:29:45 11° S visible
10 Dec 10.1 03:39:43 48° NNE 03:39:43 48° NNE 03:44:33 10° NE visible
11 Dec 10.5 04:09:26 31° NNW 04:09:26 31° NNW 04:14:07 10° NNE visible
11 Dec 13.0 18:18:20 10° SW 18:22:58 13° SSW 18:27:50 10° S visible
11 Dec 12.7 22:28:48 10° S 22:32:34 13° S 22:32:34 13° S visible
12 Dec 11.1 04:38:55 18° NNW 04:38:55 18° NNW 04:42:56 10° N visible
12 Dec 12.7 22:57:48 10° SSW 23:00:28 15° S 23:00:28 15° S visible
13 Dec 12.0 03:15:13 11° NNE 03:15:13 11° NNE 03:15:22 10° NE visible
13 Dec 12.6 21:28:36 10° S 21:32:59 13° SSE 21:35:27 12° SSE visible
13 Dec 12.8 23:27:17 10° SSW 23:28:22 13° SSW 23:28:22 13° SSW visible
14 Dec 11.8 03:44:23 11° NNE 03:44:23 11° NNE 03:44:35 10° NNE visible
14 Dec 12.4 21:57:28 10° SSW 22:03:23 18° SSE 22:03:23 18° SSE visible
15 Dec 12.7 20:28:51 10° S 20:32:07 11° SSE 20:35:22 10° SSE visible
15 Dec 12.4 22:26:51 10° SSW 22:31:20 21° S 22:31:20 21° S visible
16 Dec 12.4 20:57:22 10° SSW 21:04:00 17° SSE 21:06:24 16° SE visible
16 Dec 12.5 22:56:35 10° SW 22:59:19 19° SSW 22:59:19 19° SSW visible
